Location: Hope
(40.9110°N, 74.9680°W)
Time: 14:06:11
(UTC-05:00)

FORTE - Pass Details

Date: 12 December 2021
Orbit: 785 x 822 km, 70.0° (Epoch: 23 January)

Event Time Altitude Azimuth Distance (km) Brightness Sun altitude
Exits shadow 06:00:05 19° 305° (NW) 1,832 8.4 -13.7°
Maximum altitude 06:00:30 19° 311° (NW) 1,825 8.4 -13.7°
Drops below altitude 10° 06:04:17 10° 355° (N) 2,376 9.3 -13.0°
Sets 06:07:27 0° 14° (NNE) 3,317 10.2 -12.4°
